Weather History for Rexburg, ID

Change the Weather History Date:

Friday, November 9, 2012

  Actual Average Record
Temperature  
Mean Temperature 34 °F 34 °F  
Max Temperature 40 °F 45 °F 55 °F (2004)
Min Temperature 28 °F 24 °F 13 °F (2011)
Degree Days  
Heating Degree Days 31 31  
Month to date heating degree days 197 259  
Since 1 July heating degree days 1011 1246  
Cooling Degree Days 0 0  
Month to date cooling degree days 0 0  
Year to date cooling degree days 419 208  
Moisture  
Dew Point 30 °F    
Average Humidity 88    
Maximum Humidity 100    
Minimum Humidity 75    
Precipitation  
Precipitation 0.20 in 0.04 in 0.50 in (1984)
Month to date precipitation 0.20 0.35  
Year to date precipitation 8.24 11.34  
Sea Level Pressure  
Sea Level Pressure 29.65 in    
Wind  
Wind Speed 10 mph (SSW)    
Max Wind Speed 20 mph    
Max Gust Speed 26 mph    
Visibility 7 miles    
Events Snow    
T = Trace of Precipitation, MM = Missing Value Source: NWS Daily Summary

Daily Weather History Graph

Daily Weather History Graph

Search for Another Location

Airport:

Trip Planner

Search our weather history database for the weather conditions in past years. The results will help you decide how hot, cold, wet, or windy it might be!

Date:

Astronomy

Nov. 09, 2012 Rise Set
Actual Time 7:14 AM MST 5:07 PM MST
Civil Twilight 6:44 AM MST 5:37 PM MST
Nautical Twilight 6:09 AM MST 6:12 PM MST
Astronomical Twilight 5:35 AM MST 6:45 PM MST
Moon 2:08 AM MST (11/9) 2:30 PM MST (11/9)
Length of Visible Light 10h 53m
Length of Day
9h 52m
Waning Crescent, 22% of the Moon is Illuminated
Nov 9
Waning Crescent
Nov 13
New
Nov 20
First Quarter
Nov 28
Full
Dec 6
Last Quarter

Hourly Weather History & Observations

Time (MST) Temp. Windchill Dew Point Humidity Pressure Visibility Wind Dir Wind Speed Gust Speed Precip Events Conditions
12:27 AM 39.2 °F 32.0 °F 35.6 °F 87% 29.60 in 10.0 mi SW 11.5 mph - N/A   Overcast
12:53 AM 39.0 °F 31.8 °F 36.0 °F 89% 29.56 in 10.0 mi SSW 11.5 mph 21.9 mph N/A   Overcast
1:53 AM 37.0 °F 28.9 °F 34.0 °F 89% 29.55 in 10.0 mi SSW 12.7 mph - N/A   Overcast
2:43 AM 33.8 °F 24.3 °F 33.8 °F 100% 29.60 in 5.0 mi SSW 13.8 mph 21.9 mph 0.02 in Snow Light Snow
2:53 AM 34.0 °F 25.0 °F 33.1 °F 96% 29.57 in 4.0 mi SSW 12.7 mph 20.7 mph 0.02 in Snow Light Snow
3:32 AM 33.8 °F 22.8 °F 32.0 °F 93% 29.60 in 1.8 mi SSW 18.4 mph 26.5 mph 0.03 in Snow Light Snow
3:48 AM 32.0 °F 21.2 °F 32.0 °F 100% 29.61 in 0.8 mi SSW 16.1 mph 25.3 mph 0.05 in Snow Light Snow
3:53 AM 32.0 °F 21.2 °F 32.0 °F 100% 29.60 in 1.0 mi SSW 16.1 mph 25.3 mph 0.05 in Snow Light Snow
4:39 AM 32.0 °F 23.0 °F 32.0 °F 100% 29.62 in 2.0 mi SW 11.5 mph - 0.04 in Snow Light Snow
4:53 AM 32.0 °F 23.6 °F 32.0 °F 100% 29.63 in 2.5 mi SSW 10.4 mph - 0.05 in Snow Light Snow
5:05 AM 32.0 °F 23.0 °F 32.0 °F 100% 29.65 in 1.2 mi SSW 11.5 mph - 0.01 in Snow Light Snow
5:53 AM 32.0 °F 24.8 °F 32.0 °F 100% 29.65 in 1.2 mi SSW 8.1 mph - 0.05 in Snow Light Snow
6:05 AM 32.0 °F 23.6 °F 32.0 °F 100% 29.65 in 3.0 mi SSW 10.4 mph - 0.01 in Snow Light Snow
6:53 AM 32.0 °F 26.4 °F 32.0 °F 100% 29.67 in 3.0 mi SSW 5.8 mph - 0.01 in Snow Light Snow
6:58 AM 32.0 °F 26.4 °F 32.0 °F 100% 29.66 in 1.8 mi SSW 5.8 mph - 0.00 in Snow Light Snow
7:24 AM 32.0 °F 25.6 °F 32.0 °F 100% 29.66 in 2.5 mi SSW 6.9 mph - 0.01 in Snow Light Snow
7:49 AM 32.0 °F 24.8 °F 32.0 °F 100% 29.67 in 1.8 mi SSW 8.1 mph - 0.02 in Snow Light Snow
7:53 AM 32.0 °F 24.8 °F 32.0 °F 100% 29.69 in 2.0 mi SSW 8.1 mph - 0.02 in Snow Light Snow
8:01 AM 32.0 °F 23.6 °F 32.0 °F 100% 29.68 in 5.0 mi SSW 10.4 mph - 0.00 in Snow Light Snow
8:53 AM 32.0 °F 24.2 °F 30.9 °F 96% 29.69 in 9.0 mi SW 9.2 mph - 0.00 in Snow Light Snow
9:53 AM 32.0 °F 23.6 °F 32.0 °F 100% 29.68 in 3.0 mi SW 10.4 mph - 0.00 in Snow Light Snow
10:21 AM 32.0 °F 23.0 °F 32.0 °F 100% 29.66 in 2.5 mi SW 11.5 mph 20.7 mph 0.00 in Snow Light Snow
10:29 AM 32.0 °F 23.0 °F 32.0 °F 100% 29.66 in 3.0 mi SW 11.5 mph - 0.00 in Snow Light Snow
10:53 AM 33.1 °F 23.9 °F 30.9 °F 92% 29.68 in 7.0 mi SW 12.7 mph - 0.00 in Snow Light Snow
11:49 AM 33.8 °F 25.3 °F 30.2 °F 87% 29.67 in 10.0 mi SW 11.5 mph - 0.00 in   Overcast
11:53 AM 33.1 °F 23.9 °F 30.9 °F 92% 29.69 in 10.0 mi SW 12.7 mph - 0.00 in   Overcast
12:21 PM 33.8 °F 25.3 °F 30.2 °F 87% 29.67 in 10.0 mi SW 11.5 mph - N/A   Overcast
12:35 PM 33.8 °F 25.8 °F 30.2 °F 87% 29.64 in 10.0 mi SW 10.4 mph - N/A   Overcast
12:53 PM 35.1 °F 26.9 °F 30.9 °F 85% 29.66 in 10.0 mi SW 11.5 mph - N/A   Overcast
1:02 PM 33.8 °F 24.8 °F 28.4 °F 81% 29.63 in 10.0 mi SW 12.7 mph 19.6 mph N/A   Overcast
1:53 PM 34.0 °F 25.5 °F 28.9 °F 82% 29.66 in 10.0 mi SW 11.5 mph - N/A   Overcast
2:10 PM 33.8 °F 25.3 °F 30.2 °F 87% 29.63 in 10.0 mi WSW 11.5 mph - N/A   Overcast
2:53 PM 34.0 °F 25.0 °F 28.9 °F 82% 29.65 in 10.0 mi SW 12.7 mph - N/A   Overcast
3:04 PM 33.8 °F 23.9 °F 28.4 °F 81% 29.62 in 10.0 mi SW 15.0 mph 20.7 mph N/A   Mostly Cloudy
3:26 PM 33.8 °F 24.3 °F 28.4 °F 81% 29.64 in 10.0 mi SW 13.8 mph - N/A   Overcast
3:48 PM 33.8 °F 24.3 °F 28.4 °F 81% 29.63 in 10.0 mi SW 13.8 mph - N/A   Overcast
3:53 PM 34.0 °F 25.5 °F 28.0 °F 79% 29.67 in 10.0 mi SW 11.5 mph - N/A   Overcast
4:27 PM 33.8 °F 24.8 °F 26.6 °F 75% 29.62 in 10.0 mi WSW 12.7 mph - N/A   Mostly Cloudy
4:53 PM 33.1 °F 24.9 °F 26.1 °F 75% 29.68 in 10.0 mi SW 10.4 mph - N/A   Overcast
5:42 PM 32.0 °F 24.8 °F 26.6 °F 80% 29.63 in 10.0 mi SSW 8.1 mph - N/A   Overcast
5:53 PM 32.0 °F 24.2 °F 27.0 °F 82% 29.69 in 10.0 mi SSW 9.2 mph - N/A   Mostly Cloudy
6:53 PM 30.9 °F 22.8 °F 26.1 °F 82% 29.69 in 10.0 mi SSW 9.2 mph - N/A   Overcast
8:03 PM 30.2 °F 22.6 °F 26.6 °F 86% 29.63 in 10.0 mi South 8.1 mph - N/A   Mostly Cloudy
8:53 PM 30.9 °F 24.3 °F 26.1 °F 82% 29.70 in 10.0 mi South 6.9 mph - N/A   Overcast
9:53 PM 30.0 °F 22.4 °F 26.1 °F 85% 29.71 in 10.0 mi South 8.1 mph - N/A   Overcast
10:08 PM 30.2 °F 21.3 °F 24.8 °F 80% 29.65 in 10.0 mi South 10.4 mph - N/A   Overcast
10:25 PM 30.2 °F 21.3 °F 24.8 °F 80% 29.65 in 10.0 mi South 10.4 mph 17.3 mph N/A   Mostly Cloudy
10:53 PM 28.9 °F 19.2 °F 25.0 °F 85% 29.70 in 10.0 mi South 11.5 mph 18.4 mph N/A   Scattered Clouds
11:06 PM 30.2 °F 20.8 °F 24.8 °F 80% 29.64 in 10.0 mi South 11.5 mph - N/A   Mostly Cloudy
11:34 PM 28.4 °F 18.5 °F 24.8 °F 86% 29.64 in 10.0 mi SSW 11.5 mph 20.7 mph N/A   Overcast
11:53 PM 28.9 °F 19.8 °F 25.0 °F 85% 29.70 in 10.0 mi SSW 10.4 mph - N/A   Overcast